Tracking 32139 objects as of 16-Nov-2025
HD Live streaming from Space Station
objects crossing your sky now

STARLINK-35154

Track STARLINK-35154 now!
10-day predictions
STARLINK-35154 is classified as:


NORAD ID: 65612
Int'l Code: 2025-207W
Perigee: 454.4 km
Apogee: 455.8 km
Inclination: 97.6 °
Period: 93.5 minutes
Semi major axis: 6826 km
RCS: Unknown
Launch date: September 13, 2025
Source: United States (US)
Launch site: AIR FORCE EASTERN TEST RANGE (AFETR)
Your satellite tracking list
Your tracking list is empty




NASA's NSSDC Master Catalog

Two Line Element Set (TLE):
1 65612U 25207W   25319.64649604  .00067682  00000-0  17203-2 0  9999
2 65612  97.6065  24.4247 0001065  86.9247 273.2120 15.39378483 10825
Source of the keplerian elements: AFSPC